Date,TemperatureHighF,TemperatureAvgF,TemperatureLowF,DewpointHighF,DewpointAvgF,DewpointLowF,HumidityHigh,HumidityAvg,HumidityLow,PressureMaxIn,PressureMinIn,WindSpeedMaxMPH,WindSpeedAvgMPH,GustSpeedMaxMPH,PrecipitationSumIn
2012-1-1,59.5,44.6,29.1,45.5,35.8,23.8,96,74,40,30.18,29.84,6,2,9,0.00
2012-1-2,47.1,37.1,29.0,24.9,17.8,13.2,72,46,36,30.04,29.94,11,3,13,0.00
2012-1-3,30.9,26.5,17.0,19.1,9.8,1.7,71,50,33,30.35,30.03,10,4,19,0.00
2012-1-4,36.4,25.3,14.1,18.0,12.8,7.3,88,61,39,30.39,30.05,4,1,8,0.00
2012-1-5,52.1,38.4,27.4,26.9,22.4,15.8,77,54,32,30.10,30.02,5,1,7,0.00
2012-1-6,69.5,48.8,30.5,32.0,28.6,24.3,79,49,23,30.02,29.89,6,2,10,0.00
2012-1-7,66.3,50.5,36.5,46.8,35.7,25.1,70,57,46,30.11,29.87,4,1,7,0.00
2012-1-8,56.3,45.8,34.1,31.0,27.5,25.0,77,50,31,30.36,30.11,4,2,5,0.00
2012-1-9,36.6,33.2,29.4,32.2,28.8,24.7,96,84,63,30.40,30.10,2,0,2,0.03
2012-1-10,54.2,38.5,30.5,41.7,31.9,28.2,99,81,41,30.15,30.04,4,1,7,0.07
2012-1-12,58.4,53.3,49.8,48.5,47.1,46.0,88,80,68,29.53,29.38,5,3,8,0.50
2012-1-13,51.0,35.0,27.1,46.8,21.0,14.7,90,57,42,30.04,29.38,7,3,12,0.09
2012-1-14,38.9,31.1,23.4,22.6,17.7,14.1,79,58,41,30.21,30.05,4,1,7,0.00
2012-1-15,37.3,29.3,22.2,20.4,16.4,12.5,85,60,37,30.65,30.21,6,1,7,0.00
2012-1-16,44.8,32.0,16.9,32.9,22.6,14.7,92,70,48,30.66,30.25,7,3,13,0.01
2012-1-17,59.5,51.2,42.4,51.5,41.5,32.8,86,70,58,30.24,29.77,7,4,14,0.01
2012-1-18,56.1,40.0,26.9,45.7,21.3,15.0,68,48,35,30.22,29.81,9,4,16,0.00
2012-1-19,42.0,30.5,17.8,24.6,18.1,14.8,91,62,38,30.29,30.01,6,2,12,0.00
2012-1-20,37.9,33.6,28.4,26.2,24.1,19.3,91,69,56,30.31,30.03,3,1,6,0.00
2012-1-21,33.1,31.4,28.4,31.9,30.0,26.1,97,95,91,30.32,29.97,3,1,3,0.41
2012-1-22,32.8,31.4,29.4,31.6,29.8,27.9,97,94,88,30.51,30.34,3,1,3,0.05
2012-1-25,53.7,46.3,41.2,38.5,37.3,36.1,86,72,52,30.28,30.23,4,1,8,0.00
2012-1-26,56.6,48.3,38.9,48.0,42.5,36.8,93,81,67,30.24,29.74,3,1,4,0.00
2012-1-27,65.7,56.1,41.7,58.9,44.7,28.5,97,68,43,30.05,29.51,10,3,15,0.17
2012-1-28,59.5,42.6,29.1,35.9,28.2,12.2,93,61,26,30.26,29.98,7,2,14,0.02
2012-1-29,49.8,40.7,26.7,26.0,14.6,7.5,75,36,18,30.35,30.14,7,2,11,0.01
2012-1-30,52.9,40.7,26.8,25.6,18.2,9.8,71,42,22,30.44,30.25,6,2,6,0.00
2012-1-31,68.7,52.4,33.7,33.8,28.3,24.4,71,42,21,30.30,30.15,6,2,11,0.00
2012-2-1,70.3,59.1,49.4,51.5,41.4,32.5,85,53,38,30.15,30.03,5,2,10,0.01
2012-2-2,62.9,53.9,42.3,53.4,41.6,27.3,98,69,28,30.37,29.98,10,3,21,0.75
2012-2-3,55.1,42.3,29.4,32.7,29.1,26.2,92,63,35,30.56,30.37,4,1,8,0.00
2012-2-4,42.9,37.0,29.7,34.8,32.0,27.5,92,82,66,30.41,30.15,3,1,7,0.00
2012-2-5,42.5,36.7,27.2,35.1,32.1,25.4,96,84,63,30.31,30.12,5,1,10,0.01
2012-2-6,51.9,37.3,22.7,35.0,29.0,21.2,95,75,45,30.33,30.14,6,2,15,0.00
2012-2-7,60.2,45.7,30.3,34.4,28.4,23.4,90,55,26,30.26,30.14,5,1,10,0.00
2012-2-8,41.5,36.8,31.5,36.0,31.3,27.5,97,81,60,30.30,30.16,2,0,6,0.04
2012-2-9,49.9,40.2,30.4,32.5,24.9,17.6,97,58,28,30.33,30.21,5,1,10,0.00
2012-2-10,46.5,38.9,27.4,36.9,28.3,23.2,92,67,48,30.24,29.95,3,1,7,0.02
2012-2-11,41.1,33.9,24.2,36.7,24.5,5.6,96,72,38,30.02,29.74,13,4,31,0.06
2012-2-12,35.1,27.4,18.3,14.9,6.4,1.9,66,41,30,30.21,30.02,10,4,22,0.00
2012-2-13,50.1,36.0,22.1,24.9,15.2,9.4,73,45,22,30.27,30.14,4,1,11,0.00
2012-2-14,53.8,43.9,34.8,38.3,29.2,22.8,75,57,37,30.14,29.98,6,2,17,0.00
2012-2-15,59.6,47.6,35.7,38.4,32.6,27.3,89,60,30,30.34,30.07,4,1,10,0.00
2012-2-16,45.1,43.2,41.1,43.7,38.9,32.4,98,85,62,30.34,30.05,2,1,7,0.27
2012-2-17,56.4,44.6,34.3,43.2,33.7,27.9,99,71,36,30.17,30.04,6,2,12,0.00
2012-2-18,61.3,46.6,30.0,35.8,30.0,25.0,93,58,28,30.18,29.95,6,2,14,0.00
2012-2-19,47.4,37.3,32.8,32.2,27.6,22.3,96,70,50,30.15,29.93,4,1,14,0.00
2012-2-20,47.6,36.0,27.8,33.6,30.2,26.0,97,82,48,30.40,30.03,3,1,7,0.43
2012-2-21,50.4,36.3,22.9,33.9,28.9,21.4,95,77,50,30.40,29.94,7,2,18,0.01
2012-2-22,64.0,49.4,33.1,45.9,36.6,30.8,96,66,30,29.94,29.54,7,2,19,0.01
2012-2-23,69.0,54.6,41.3,48.0,44.0,40.0,97,71,40,29.66,29.53,6,2,14,0.01
2012-2-24,75.5,54.5,42.8,60.6,43.6,24.7,93,69,35,29.80,29.36,13,3,19,0.15
2012-2-25,44.9,38.8,32.8,27.9,18.3,11.5,66,44,28,30.37,29.79,10,4,27,0.00
2012-2-26,50.2,37.3,25.1,24.0,18.2,14.5,78,48,25,30.54,30.37,5,2,14,0.00
2012-2-27,64.0,46.0,27.9,42.3,29.7,20.7,82,57,28,30.47,30.24,7,2,19,0.00
2012-2-28,62.1,49.7,36.8,39.1,25.8,20.4,88,42,21,30.49,30.32,4,2,11,0.00
2012-2-29,56.9,47.1,37.3,56.3,43.5,26.7,98,88,63,30.34,29.71,8,2,13,0.88
2012-3-1,71.3,61.2,47.6,57.7,39.2,29.3,98,49,21,30.00,29.69,7,3,21,0.18
2012-3-2,49.9,43.0,32.5,44.7,38.7,30.4,97,85,64,30.10,29.75,3,1,6,0.10
2012-3-3,61.1,50.6,44.5,50.3,36.0,18.8,99,65,20,29.78,29.60,4,1,11,0.10
2012-3-4,49.9,43.0,30.5,30.1,22.8,17.0,74,46,31,29.99,29.73,8,2,16,0.04
2012-3-5,41.1,33.8,28.1,33.4,26.5,22.5,96,76,51,30.54,29.98,7,2,13,0.43
2012-3-6,51.7,37.6,22.8,25.7,22.9,20.3,91,59,32,30.74,30.54,5,2,14,0.11
2012-3-7,67.5,51.0,34.5,45.2,35.4,24.8,73,56,39,30.63,30.41,9,3,22,0.01
2012-3-8,71.2,61.3,51.2,53.9,49.2,43.4,87,66,45,30.42,30.04,9,4,24,0.00
2012-3-9,63.6,54.3,39.6,52.4,30.2,18.4,81,42,21,30.39,30.04,10,4,15,0.00
2012-3-10,52.8,41.9,32.6,25.2,19.2,12.8,70,42,20,30.59,30.39,6,2,11,0.00
2012-3-11,65.0,46.4,27.9,32.8,27.6,23.3,86,53,25,30.61,30.42,6,2,17,0.00
2012-3-12,73.3,57.2,39.3,52.2,39.0,29.6,69,52,30,30.45,30.18,6,2,16,0.00
2012-3-13,80.7,67.4,54.2,57.5,51.6,47.0,91,60,33,30.18,30.00,5,2,13,0.00
2012-3-14,83.4,65.0,45.8,52.7,42.8,32.0,94,53,16,30.24,30.11,4,1,9,0.00
2012-3-15,82.7,63.9,45.7,50.3,45.9,40.8,86,56,28,30.25,30.13,5,1,12,0.00
2012-3-16,74.8,61.3,52.8,56.7,52.5,48.6,91,74,48,30.23,30.12,3,1,7,0.00
2012-3-17,77.9,62.9,48.0,58.1,52.8,47.2,98,73,40,30.31,30.21,4,1,11,0.00
2012-3-18,70.5,59.3,48.9,58.4,54.0,47.8,98,83,65,30.39,30.23,4,1,13,0.00
2012-3-19,79.6,67.1,55.9,59.4,56.7,54.0,97,72,46,30.24,30.11,4,1,8,0.00
2012-3-20,77.4,66.8,54.9,64.3,60.3,52.9,96,80,62,30.27,30.17,3,1,8,0.01
2012-3-21,73.1,64.2,57.6,63.1,60.3,56.3,98,88,66,30.35,30.22,3,1,7,0.01
2012-3-22,82.8,67.3,56.3,65.5,59.7,55.7,99,80,46,30.30,30.09,5,1,15,0.01
2012-3-23,84.3,70.5,54.9,64.0,59.5,53.8,98,71,42,30.12,29.93,4,1,10,0.00
2012-3-24,72.2,64.8,57.5,63.3,60.2,56.0,97,86,61,29.94,29.82,7,1,7,0.44
2012-3-25,61.8,57.2,53.0,57.4,55.0,52.2,97,92,81,29.84,29.77,4,1,11,0.69
2012-3-26,67.4,59.7,47.4,56.9,36.0,17.0,97,45,21,30.24,29.83,11,6,22,0.06
2012-3-27,60.0,46.2,30.1,34.2,19.9,12.0,78,39,17,30.43,30.24,6,2,16,0.16
2012-3-28,84.2,60.6,41.8,60.0,42.5,26.4,74,53,29,30.25,29.71,7,2,18,0.03
2012-3-29,73.0,66.4,53.6,54.4,38.8,33.1,59,37,26,30.04,29.76,7,3,18,0.03
2012-3-30,67.6,53.0,39.0,46.3,39.8,35.1,90,62,43,30.16,29.90,4,1,10,0.01
2012-3-31,75.9,60.5,50.3,56.6,50.2,44.9,88,70,46,29.90,29.70,4,2,11,0.02
2012-4-1,69.0,56.6,48.2,50.5,47.2,44.6,90,72,48,29.95,29.60,5,2,16,0.01
2012-4-2,67.4,58.3,45.2,53.3,40.5,28.7,88,55,24,30.00,29.58,6,2,14,0.00
2012-4-3,77.0,55.8,34.4,50.3,40.2,32.9,96,62,28,30.10,29.81,5,1,11,0.00
2012-4-4,81.4,66.5,50.3,59.8,52.0,47.4,93,63,36,29.81,29.57,6,1,11,0.00
2012-4-5,67.0,53.5,42.4,46.5,34.1,27.0,88,49,32,29.93,29.70,4,1,10,0.00
2012-4-6,63.1,49.4,36.8,39.2,28.4,19.8,95,50,20,30.14,29.92,6,2,14,0.00
2012-4-7,68.7,53.6,32.9,30.8,20.9,15.0,73,32,15,30.31,30.11,6,2,14,0.00
2012-4-8,74.9,57.5,36.3,37.0,30.1,20.8,81,41,17,30.17,29.86,7,2,16,0.00
2012-4-9,69.8,60.6,45.0,39.7,27.9,19.8,57,30,21,30.01,29.77,8,3,20,0.00
2012-4-10,69.6,55.9,39.4,42.1,25.7,5.8,92,42,9,29.91,29.71,11,3,22,0.00
2012-4-11,50.7,45.6,38.0,30.6,26.5,22.1,68,48,34,30.15,29.92,8,4,18,0.00
2012-4-12,60.5,49.7,39.0,34.8,30.5,26.1,76,50,27,30.25,30.13,7,3,16,0.00
2012-4-13,68.5,52.7,39.3,39.5,34.3,29.1,88,56,24,30.32,30.23,4,1,10,0.00
2012-4-14,76.6,59.0,36.3,45.4,39.2,34.4,94,54,24,30.31,30.10,5,2,16,0.00
2012-4-15,84.6,71.6,56.6,59.4,51.0,45.4,73,50,32,30.14,30.01,5,2,15,0.00
2012-4-16,86.6,74.4,60.4,63.6,60.0,57.8,92,63,41,30.09,29.94,7,3,25,0.00
2012-4-17,75.6,67.2,57.7,60.4,46.8,31.2,93,53,21,30.24,30.02,7,2,14,0.00
2012-4-18,61.8,51.8,48.9,50.1,46.7,38.6,97,84,43,30.33,30.18,4,0,7,0.43
2012-4-19,69.0,56.4,49.3,53.6,50.3,48.4,98,82,50,30.18,30.05,4,1,8,0.00
2012-4-20,71.7,62.1,47.3,55.6,52.9,46.2,98,74,52,30.07,29.86,5,2,11,0.01
2012-4-21,79.6,62.1,51.6,61.8,56.1,50.5,98,84,44,29.86,29.65,6,2,16,0.11
2012-4-22,56.7,51.1,47.0,55.0,49.1,42.2,96,93,81,29.81,29.52,4,2,14,0.33
2012-4-23,47.9,43.9,41.0,43.0,40.6,36.8,96,88,73,29.63,29.43,7,2,16,0.14
2012-4-24,62.8,48.4,34.0,41.2,31.3,18.5,99,61,19,29.79,29.60,7,2,15,0.00
2012-4-25,70.5,54.3,36.1,45.4,35.8,28.5,96,57,23,29.92,29.79,4,1,13,0.00
2012-4-26,69.3,61.2,54.1,61.0,56.0,45.7,98,83,69,29.89,29.65,5,2,11,0.46
2012-4-27,69.6,58.8,46.3,56.3,38.8,27.9,88,52,22,30.21,29.76,7,2,12,0.00
2012-4-28,53.5,47.3,42.0,45.1,39.7,33.2,92,76,48,30.37,30.17,5,1,10,0.05
2012-4-29,71.8,55.8,45.4,53.4,47.6,43.0,96,77,43,30.31,30.16,4,1,8,0.05
2012-4-30,59.4,54.7,49.9,54.6,48.9,38.0,96,81,57,30.34,30.15,2,0,6,0.01
2012-5-1,86.2,69.7,57.1,68.9,61.4,54.4,98,78,45,30.15,29.98,4,1,10,0.10
2012-5-2,88.0,73.5,61.8,69.4,65.0,60.6,98,77,48,30.10,29.99,3,1,7,0.07
2012-5-3,85.5,71.8,61.9,71.5,66.1,61.0,97,84,59,30.17,30.02,4,1,10,0.15
2012-5-4,80.7,70.7,61.8,71.4,66.7,61.2,99,88,61,30.08,29.91,2,0,6,0.01
2012-5-5,76.0,68.3,60.4,70.2,65.4,59.8,99,91,72,29.99,29.86,3,0,10,0.36
2012-5-6,70.9,65.8,60.6,65.6,62.7,60.0,99,90,75,30.10,29.98,3,1,6,0.00
2012-5-7,70.7,64.6,60.5,63.0,58.6,49.4,91,81,59,30.13,30.00,3,1,11,0.00
2012-5-8,71.2,64.8,57.2,66.5,60.0,49.4,97,85,60,30.05,29.83,4,1,10,0.24
2012-5-9,73.1,65.4,54.6,66.4,61.5,53.8,99,88,56,29.84,29.70,5,1,13,0.17
2012-5-10,67.8,59.0,47.7,54.3,44.6,36.7,99,64,32,30.01,29.69,9,3,22,0.01
2012-5-11,74.1,59.0,43.9,49.1,41.0,33.0,93,57,26,30.24,30.01,5,1,13,0.00
2012-5-12,75.3,61.3,42.9,54.8,48.4,41.8,98,68,35,30.37,30.23,3,1,10,0.00
2012-5-13,78.5,66.8,55.5,60.3,56.0,52.0,89,70,45,30.26,30.13,6,2,13,0.00
2012-5-14,67.0,63.7,60.6,66.1,62.4,59.6,98,96,87,30.16,30.00,3,1,13,0.63
2012-5-15,79.4,68.2,63.0,67.5,64.4,62.4,99,89,62,30.02,29.92,4,1,10,0.87
2012-5-16,83.4,69.5,60.6,67.6,61.1,53.5,100,79,36,29.99,29.88,2,0,6,0.01
2012-5-17,75.6,65.5,56.4,60.1,55.4,51.9,98,72,46,30.14,29.94,3,1,9,0.00
2012-5-18,73.4,61.3,48.7,55.7,51.0,46.9,97,72,39,30.22,30.13,3,1,9,0.00
2012-5-19,79.5,63.8,47.8,58.8,52.2,46.9,99,70,38,30.24,30.12,3,1,8,0.00
2012-5-20,81.6,66.9,51.5,60.3,56.1,50.7,98,72,42,30.20,30.08,4,1,11,0.00
2012-5-21,72.3,67.3,63.6,68.0,64.6,58.7,98,91,78,30.08,29.91,3,1,6,0.20
2012-5-22,81.4,68.9,60.5,69.8,64.7,60.1,100,88,58,29.92,29.81,3,1,9,0.12
2012-5-23,78.4,68.6,62.4,70.6,65.6,61.9,99,91,64,29.98,29.86,4,1,9,0.37
2012-5-24,78.2,68.3,59.6,71.4,65.2,59.3,100,91,70,30.10,29.98,4,0,9,0.14
2012-5-25,87.0,74.1,63.7,73.4,68.2,63.2,100,84,55,30.16,30.09,3,1,7,0.00
2012-5-26,87.3,74.8,64.4,73.3,69.0,63.8,100,84,59,30.18,30.09,4,1,7,0.00
2012-5-27,87.2,76.2,65.4,70.7,68.1,64.5,98,78,51,30.17,30.06,4,1,10,0.00
2012-5-28,88.2,78.1,65.3,74.4,70.1,64.4,98,78,57,30.14,29.95,4,1,11,0.00
2012-5-29,87.7,76.9,68.3,72.6,69.3,66.9,98,79,54,29.98,29.75,8,2,18,0.51
2012-5-30,83.2,72.4,65.7,69.8,64.5,57.4,99,79,42,29.84,29.74,3,1,7,0.02
2012-5-31,84.9,72.5,59.8,65.8,61.5,57.6,99,72,43,29.90,29.78,3,1,9,0.00
2012-6-1,77.2,68.0,61.2,72.3,66.0,60.6,98,93,78,29.92,29.66,4,0,19,1.10
2012-6-2,73.4,62.4,52.2,60.4,52.2,45.7,99,73,39,29.90,29.76,5,1,12,0.01
2012-6-3,79.3,64.8,50.0,57.7,53.2,49.2,98,70,41,29.92,29.75,3,1,11,0.00
2012-6-4,77.4,65.6,56.4,65.2,56.6,51.8,96,76,41,29.80,29.67,6,1,12,0.06
2012-6-5,68.8,60.4,53.9,57.3,55.5,53.0,98,85,59,29.99,29.79,3,1,9,0.03
2012-6-6,71.6,61.0,56.1,60.3,57.0,52.9,98,88,53,30.06,29.98,3,0,7,0.43
2012-6-7,79.9,66.7,52.7,64.8,56.6,49.2,100,74,35,30.07,29.98,5,1,11,0.00
2012-6-8,84.5,68.5,52.3,62.3,55.1,48.6,98,68,32,30.08,29.96,5,1,10,0.00
2012-6-9,87.8,72.2,54.8,65.1,57.8,52.1,98,66,30,30.06,29.98,3,1,9,0.00
2012-6-10,88.5,74.1,57.8,68.5,62.7,56.7,98,71,41,30.14,30.04,3,1,9,0.00
2012-6-11,78.8,69.7,61.2,69.9,65.9,60.3,99,88,65,30.15,30.08,4,1,11,0.08
2012-6-12,80.8,72.6,68.0,75.5,70.9,67.2,99,95,82,30.07,29.83,3,1,8,0.55
2012-6-13,80.8,72.1,58.4,70.6,59.5,45.5,100,70,30,30.09,29.88,5,1,13,0.00
2012-6-14,78.9,66.8,53.4,64.8,59.4,52.3,98,78,57,30.23,30.09,3,1,8,0.00
2012-6-15,79.6,69.9,60.7,63.8,60.3,57.1,95,74,48,30.30,30.23,3,1,11,0.00
2012-6-16,78.2,66.4,53.5,60.9,57.1,52.7,98,75,48,30.35,30.21,4,1,8,0.00
2012-6-17,79.3,67.5,53.5,61.8,57.1,52.7,99,73,43,30.24,30.05,4,1,8,0.00
2012-6-18,70.4,65.0,60.9,66.9,61.9,57.8,98,90,75,30.13,30.04,3,1,7,0.30
2012-6-19,89.7,74.5,64.4,75.4,68.5,63.8,99,84,53,30.17,30.10,2,0,6,0.01
2012-6-20,94.1,80.8,65.9,77.3,70.6,65.3,99,74,44,30.17,30.03,3,1,6,0.00
2012-6-21,94.7,81.3,68.9,76.2,71.9,68.1,99,76,44,30.04,29.87,5,1,10,0.00
2012-6-22,89.5,78.1,68.6,74.3,70.4,65.5,97,79,51,29.92,29.79,5,1,13,0.25
2012-6-23,88.4,75.2,63.6,73.0,63.7,51.5,100,73,31,30.04,29.90,4,1,10,0.00
2012-6-24,86.1,75.2,63.2,72.2,67.2,62.1,97,78,55,30.05,29.92,5,1,11,0.00
2012-6-25,87.1,75.8,66.2,74.0,63.8,50.0,98,70,40,29.91,29.72,6,2,15,0.65
2012-6-26,77.8,68.4,58.5,56.2,49.5,45.4,86,52,36,29.94,29.85,7,3,20,0.00
2012-6-27,87.0,69.6,52.1,64.8,55.3,50.7,97,66,33,30.01,29.90,5,1,13,0.00
2012-6-28,93.1,76.3,57.7,68.6,61.7,55.8,98,66,31,29.98,29.79,3,1,8,0.00
2012-6-29,101.6,85.7,70.6,79.2,72.1,60.1,88,66,44,29.87,29.69,14,1,17,0.00
2012-7-7,98.0,88.0,80.6,81.0,77.2,72.9,88,72,45,29.89,29.85,1,0,7,0.00
2012-7-8,101.4,82.6,74.0,79.0,74.4,70.1,97,79,37,29.91,29.80,8,1,25,0.14
2012-7-9,84.3,76.9,71.3,74.5,72.3,68.5,98,86,70,30.00,29.85,2,1,7,0.02
2012-7-10,90.5,76.8,69.5,72.7,69.0,63.6,98,79,41,30.07,29.96,7,1,10,0.00
2012-7-11,86.2,74.6,66.0,71.4,67.5,64.8,99,80,51,30.17,30.06,4,1,8,0.00
2012-7-12,88.2,76.0,65.6,67.2,64.1,58.5,95,70,38,30.21,30.15,3,1,9,0.00
2012-7-13,82.4,75.1,68.1,66.3,62.9,55.9,88,68,41,30.24,30.17,3,1,5,0.00
2012-7-14,89.3,75.8,67.9,74.6,70.2,66.0,98,84,61,30.21,30.10,6,1,8,0.55
2012-7-15,92.8,78.4,71.3,77.7,73.1,68.8,99,86,48,30.16,30.02,6,1,6,0.29
2012-7-16,94.8,80.8,70.4,75.8,72.2,68.8,100,79,44,30.08,29.87,5,1,6,0.03
2012-7-17,97.7,82.8,68.5,75.4,69.3,65.6,99,69,37,29.95,29.83,3,1,5,0.00
2012-7-18,97.5,81.7,70.2,77.8,72.8,69.0,98,77,40,29.95,29.84,4,1,4,0.21
2012-7-19,95.4,80.9,70.4,77.1,72.1,66.7,99,78,45,29.98,29.84,3,1,6,0.01
2012-7-20,77.7,75.2,72.7,74.7,73.1,71.3,98,93,87,29.96,29.86,2,0,4,0.04
2012-7-21,74.1,69.8,67.0,73.2,67.9,65.7,98,94,84,30.15,29.94,3,1,4,0.39
2012-7-22,86.0,75.1,67.7,73.4,69.7,66.6,98,84,60,30.20,30.12,3,1,6,0.00
2012-7-23,91.9,77.2,70.0,75.2,71.9,69.4,99,86,51,30.15,29.96,3,0,6,0.13
2012-7-24,92.0,76.3,69.9,78.7,72.5,69.3,99,89,61,29.96,29.78,7,1,7,0.80
2012-7-25,88.4,76.1,65.5,70.9,66.9,61.6,99,76,45,30.00,29.84,2,0,2,0.01
2012-7-26,97.0,82.4,68.1,78.8,72.0,66.7,98,74,47,29.89,29.69,5,0,7,0.00
2012-7-27,92.2,77.7,68.7,76.1,70.1,66.9,97,79,49,29.92,29.76,10,0,11,0.04
2012-7-28,91.9,77.9,65.4,75.1,68.0,64.2,100,75,43,29.97,29.87,4,1,6,0.01
2012-7-29,88.2,76.8,65.4,70.8,67.4,64.3,98,75,50,30.04,29.95,0,0,0,0.00
2012-7-30,88.9,75.7,66.1,73.3,69.0,65.2,98,81,51,30.08,29.98,5,0,5,0.00
2012-7-31,88.2,75.0,66.1,73.0,69.8,64.9,99,86,54,30.04,29.88,6,0,8,0.57
2012-8-1,81.4,68.1,65.2,71.1,66.4,64.6,99,95,67,29.98,29.88,2,0,2,0.13
2012-8-2,92.1,82.9,68.7,76.7,73.2,68.7,100,74,50,29.94,29.86,0,0,3,0.00
2012-8-3,89.6,77.7,68.8,76.9,71.8,67.9,98,83,62,30.09,29.94,4,1,5,0.01
2012-8-4,91.1,78.6,69.2,76.7,71.7,68.6,99,82,51,30.17,30.08,5,1,11,0.00
2012-8-5,90.5,79.5,72.9,76.8,73.1,70.5,96,82,55,30.17,30.05,6,2,14,0.03
2012-8-6,84.9,77.6,72.4,76.2,72.5,68.0,97,85,69,30.10,30.00,3,0,4,0.00
2012-8-7,88.5,79.1,72.4,75.4,73.0,70.4,99,83,59,30.03,29.94,3,1,5,0.00
2012-8-8,90.5,78.4,69.5,75.3,71.8,66.7,98,82,52,30.01,29.93,4,1,7,0.00
2012-8-9,91.7,78.6,65.6,74.3,69.8,64.8,99,77,47,29.99,29.83,4,1,6,0.00
2012-8-10,85.1,75.4,68.1,74.6,70.6,66.9,98,86,63,29.85,29.74,5,2,8,0.80
2012-8-11,84.5,74.7,68.0,71.5,68.3,64.1,100,83,53,29.93,29.82,5,1,8,0.07
2012-8-12,85.2,74.0,64.4,69.7,64.4,57.5,96,75,40,30.04,29.92,3,1,4,0.00
2012-8-13,87.5,74.2,62.2,69.0,64.9,61.0,98,76,42,30.08,29.95,3,1,5,0.00
2012-8-14,87.5,76.0,68.7,72.6,69.1,66.5,99,81,50,29.96,29.82,7,1,12,0.27
2012-8-15,83.3,70.6,64.9,72.1,67.6,64.3,99,91,64,29.98,29.87,4,0,8,0.47
2012-8-16,86.9,72.4,60.2,70.0,63.7,59.7,100,78,44,30.05,29.92,4,1,5,0.01
2012-8-17,88.5,73.0,62.2,71.1,65.5,61.6,99,81,46,29.97,29.80,4,1,5,0.00
2012-8-20,65.8,65.7,65.6,65.2,65.1,65.0,98,98,98,30.00,29.99,0,0,0,0.00
2012-8-21,80.6,69.2,62.8,69.5,65.3,62.5,99,89,61,30.12,30.00,3,0,4,0.13
2012-8-22,83.2,68.9,61.5,69.0,64.8,60.9,99,88,59,30.19,30.11,6,1,6,0.00
2012-8-23,85.1,72.7,62.7,69.9,66.1,62.1,99,82,50,30.20,30.13,3,0,5,0.00
2012-8-24,83.7,73.0,64.0,69.8,66.4,63.4,99,82,54,30.20,30.13,3,0,4,0.00
2012-8-25,71.9,68.4,65.8,68.9,66.9,64.6,98,95,88,30.20,30.14,4,1,5,1.30
2012-8-26,78.5,71.3,66.6,70.1,67.9,65.8,100,90,68,30.22,30.14,3,1,9,0.04
2012-8-27,86.4,73.7,64.3,72.0,67.8,63.7,100,84,56,30.19,30.01,3,1,4,0.01
2012-8-28,90.0,75.1,66.5,74.8,68.8,65.9,99,83,47,30.01,29.90,3,0,6,0.01
2012-8-29,85.4,73.2,61.6,70.1,65.9,61.0,99,80,52,30.05,29.95,3,0,5,0.00
2012-8-30,87.0,74.5,64.4,74.0,68.6,63.8,99,83,60,30.15,30.05,2,0,4,0.00
2012-8-31,94.5,78.6,65.3,75.9,70.8,64.7,100,80,45,30.17,30.03,3,0,3,0.00
2012-9-1,83.8,76.1,69.9,77.7,73.4,69.3,99,92,75,30.14,30.03,4,0,4,0.04
2012-9-2,83.3,76.3,72.7,76.6,73.6,71.0,99,92,76,30.05,29.98,4,0,7,0.10
2012-9-3,80.3,74.7,70.8,74.6,72.0,70.0,98,92,79,30.08,29.99,3,1,7,0.10
2012-9-4,82.8,75.0,69.6,76.2,72.5,69.1,99,92,76,30.04,29.89,4,1,6,0.07
2012-9-5,85.4,76.7,71.9,78.4,74.1,71.3,98,92,75,29.91,29.82,3,1,6,0.05
2012-9-6,83.8,73.8,67.9,73.5,70.7,67.3,99,91,67,29.98,29.83,3,0,3,0.78
2012-9-7,88.2,75.9,64.9,75.0,70.3,64.6,100,84,60,29.98,29.86,4,1,7,0.00
2012-9-8,85.5,71.1,65.1,74.1,67.8,61.9,99,90,61,29.89,29.63,10,1,12,0.06
2012-9-9,77.5,65.4,54.1,64.2,56.6,51.0,99,76,43,30.02,29.86,3,1,4,0.01
2012-9-10,74.9,62.4,51.7,57.0,51.8,44.7,98,73,36,30.23,30.02,7,2,12,0.00
2012-9-11,77.0,61.4,47.5,58.0,52.2,46.7,99,76,41,30.36,30.23,3,1,4,0.00
2012-9-12,79.4,63.5,49.2,62.0,56.0,48.4,99,79,48,30.40,30.32,3,1,6,0.00
2012-9-13,80.0,63.9,50.6,62.6,55.6,49.9,99,78,36,30.42,30.30,3,0,5,0.01
2012-9-14,79.3,64.0,51.5,64.5,58.3,51.0,98,84,54,30.33,30.16,3,1,5,0.00
2012-9-15,76.5,65.0,54.8,60.2,54.4,47.3,98,73,38,30.27,30.15,4,1,12,0.00
2012-9-16,71.8,60.4,51.6,59.2,55.0,50.6,98,84,57,30.22,30.11,3,1,5,0.00
2012-9-17,67.7,61.0,52.4,64.6,59.1,51.6,99,94,84,30.16,29.98,3,0,4,0.16
2012-9-18,73.8,68.2,64.8,72.0,67.5,64.1,99,97,90,29.98,29.65,7,3,12,1.31
2012-9-19,71.6,62.5,51.6,63.3,51.7,44.8,96,70,42,30.21,29.86,5,1,7,0.00
2012-9-20,72.9,59.8,48.5,60.2,53.8,47.7,98,82,56,30.23,30.08,3,1,4,0.00
2012-9-21,81.5,65.3,51.2,65.3,59.2,50.7,99,83,47,30.12,29.97,3,1,5,0.00
2012-9-22,83.6,70.4,60.5,67.6,62.0,52.5,98,77,47,29.98,29.82,5,1,8,0.01
2012-9-23,69.7,60.3,50.6,51.7,46.1,39.6,89,61,36,30.21,29.97,3,1,6,0.00
2012-9-24,69.7,56.7,45.4,51.4,45.9,39.3,98,72,35,30.29,30.17,4,1,7,0.00
2012-9-25,74.9,57.8,42.4,57.8,49.9,41.5,98,78,46,30.25,30.11,4,1,6,0.00
2012-9-26,83.7,68.5,55.6,67.0,61.4,54.5,97,80,55,30.18,30.10,5,1,10,0.00
2012-9-27,85.0,71.5,60.2,68.9,65.0,59.5,99,82,55,30.19,30.06,4,1,6,0.00
2012-9-28,76.8,67.6,59.8,68.5,64.7,58.7,99,91,65,30.12,29.98,3,0,5,0.12
2012-9-29,71.1,62.6,58.1,59.5,56.8,52.6,98,83,56,30.06,29.93,3,0,5,0.02
2012-9-30,73.1,60.8,48.6,56.1,52.0,47.7,98,76,43,29.98,29.83,4,1,6,0.00
2012-10-1,65.6,57.2,48.8,57.8,53.1,48.0,98,87,64,30.02,29.93,3,0,5,0.01
2012-10-2,67.6,63.0,58.6,67.0,62.5,57.5,99,98,95,29.98,29.91,1,0,2,1.31
2012-10-3,66.9,66.7,66.4,66.6,66.4,66.1,99,99,99,30.07,29.97,0,0,0,0.00
2012-10-4,80.9,70.5,58.3,65.8,61.9,57.2,96,76,50,30.19,30.12,3,1,4,0.02
2012-10-5,79.8,64.9,52.3,65.5,57.3,51.8,99,80,44,30.19,29.99,3,1,7,0.00
2012-10-6,77.7,63.6,53.2,63.7,55.7,40.5,98,78,54,30.06,29.88,5,1,7,0.01
2012-10-7,52.2,49.4,43.6,49.6,46.5,42.8,98,90,76,30.24,30.04,3,0,4,0.09
2012-10-8,51.0,45.2,40.7,44.9,42.8,40.2,99,92,74,30.35,30.24,2,1,4,0.00
2012-10-9,61.1,56.9,51.6,52.8,50.0,44.6,97,79,63,30.23,30.11,3,1,4,0.07
2012-10-10,70.6,58.0,45.6,53.0,48.3,40.0,99,73,46,30.14,29.93,5,1,9,0.00
2012-10-11,64.6,52.0,41.8,46.0,38.1,29.8,95,63,33,30.35,30.15,5,1,8,0.00
2012-10-12,69.6,51.9,39.8,48.1,41.8,38.8,98,73,36,30.47,30.19,5,1,9,0.00
2012-10-13,61.2,46.9,34.1,45.0,38.8,33.1,98,77,45,30.59,30.36,5,1,7,0.00
2012-10-14,72.9,58.7,42.6,58.0,50.8,41.4,97,77,53,30.36,29.99,6,2,10,0.00
2012-10-15,71.2,65.2,56.6,65.1,57.0,39.9,93,76,45,29.99,29.68,6,3,12,0.08
2012-10-16,68.2,54.6,42.9,48.8,44.2,41.5,97,71,40,29.98,29.86,4,1,6,0.00
2012-10-17,69.0,52.9,39.7,53.2,46.4,38.9,98,81,48,30.05,29.93,4,1,6,0.00
2012-10-18,67.5,56.5,45.8,60.7,53.5,44.7,98,90,72,29.98,29.81,4,1,6,0.53
2012-10-19,72.8,61.6,48.1,61.9,54.9,42.3,99,82,36,29.83,29.65,6,1,11,0.30
2012-10-20,66.0,53.5,43.6,50.7,42.9,39.1,98,72,38,29.99,29.72,7,1,8,0.00
2012-10-21,66.7,49.6,37.4,46.7,41.2,36.4,97,77,38,30.19,29.99,4,0,7,0.00
2012-10-22,72.3,52.8,36.2,50.0,43.3,35.3,98,75,37,30.29,30.15,4,1,5,0.00
2012-10-23,82.4,61.6,45.3,58.5,51.8,44.3,98,74,40,30.19,30.05,5,1,9,0.00
2012-10-24,84.2,65.1,51.9,61.7,54.2,50.8,97,73,32,30.17,30.08,3,1,5,0.00
2012-10-25,75.9,61.8,50.0,63.1,56.9,49.2,98,85,64,30.23,30.13,3,1,5,0.00
2012-10-26,68.4,62.8,57.9,60.5,59.2,56.4,97,88,74,30.21,30.06,3,0,3,0.00
2012-10-27,67.9,62.3,58.9,58.9,55.8,51.6,97,81,60,30.06,29.87,4,1,7,0.00
2012-10-28,61.2,57.7,51.7,54.2,50.0,45.0,97,76,60,29.87,29.64,6,3,8,0.29
2012-10-29,51.6,47.4,42.7,50.5,44.0,39.9,96,88,79,29.64,28.98,10,6,21,0.46
2012-10-30,45.0,41.9,38.7,40.6,37.0,34.8,93,83,71,29.52,28.98,4,2,9,0.17
2012-10-31,54.0,46.6,41.3,38.2,36.0,34.1,83,67,51,29.72,29.51,4,2,6,0.12
2012-11-1,54.6,45.8,36.7,41.6,36.4,32.2,90,71,50,29.82,29.72,6,1,10,0.08
2012-11-2,55.2,43.6,32.8,36.5,31.5,26.3,95,66,34,30.00,29.82,7,2,10,0.06
2012-11-3,51.3,43.8,34.7,35.4,32.6,30.7,91,66,48,30.15,30.00,7,3,15,0.05
2012-11-4,54.1,45.0,37.1,38.1,34.6,31.3,83,68,49,30.16,30.03,3,1,4,0.04
2012-11-5,52.2,39.0,28.1,33.3,29.7,26.6,95,72,41,30.22,30.10,7,1,9,0.16
2012-11-6,45.0,37.0,26.2,32.4,29.1,24.7,95,75,53,30.27,30.04,3,1,6,0.00
2012-11-7,47.2,41.4,37.8,33.0,30.2,26.8,80,65,47,30.05,29.92,4,1,5,0.00
2012-11-8,58.5,47.2,36.0,33.3,19.6,7.8,87,41,15,30.06,29.97,9,3,14,0.00
2012-11-9,62.3,46.9,32.7,37.2,33.1,25.3,88,62,35,30.28,30.16,3,1,5,0.00
2012-11-10,66.9,47.1,31.4,40.1,36.1,30.1,96,70,31,30.41,30.26,3,0,5,0.00
2012-11-11,73.3,52.8,34.3,45.6,39.2,33.0,96,65,28,30.50,30.39,5,1,11,0.00
2012-11-12,67.4,57.5,46.5,59.8,53.4,44.9,97,87,73,30.45,30.14,5,1,12,0.04
2012-11-13,60.8,46.0,32.0,59.6,37.5,28.2,96,74,43,30.53,30.14,7,2,11,0.45
2012-11-14,46.8,35.2,26.1,32.0,28.7,24.7,96,79,54,30.62,30.50,3,1,8,0.00
2012-11-15,35.4,30.6,29.1,32.3,28.8,27.1,95,93,88,30.51,30.44,1,0,2,0.00
2012-11-17,52.7,43.5,36.7,32.9,31.5,30.4,82,63,43,30.65,30.59,1,0,2,0.00
2012-11-18,53.6,46.0,36.4,41.0,37.3,31.4,86,72,61,30.65,30.54,4,2,10,0.00
2012-11-19,54.9,47.5,36.5,42.4,39.8,34.5,94,75,61,30.54,30.28,5,1,6,0.00
2012-11-20,54.1,42.6,32.3,42.6,37.5,31.3,97,83,62,30.27,30.13,2,0,3,0.00
2012-11-21,58.0,41.3,29.3,41.5,34.4,28.3,97,79,49,30.28,30.19,4,0,6,0.00
2012-11-22,60.8,41.2,27.2,37.2,30.3,26.0,96,70,32,30.33,30.21,3,0,5,0.00
2012-11-23,65.7,47.0,27.1,44.3,33.6,25.6,95,64,38,30.21,29.83,8,2,13,0.00
2012-11-24,49.8,39.1,30.3,28.4,21.1,18.0,66,49,35,30.14,29.90,8,4,13,0.00
2012-11-25,46.8,36.8,27.7,24.1,21.4,19.0,78,55,33,30.15,30.00,5,2,11,0.00
2012-11-26,62.6,45.4,30.9,32.7,28.4,22.8,85,55,27,30.24,30.05,4,1,6,0.00
2012-11-27,46.4,41.8,36.1,39.9,36.0,30.5,94,81,54,30.31,30.19,3,1,3,0.03
2012-11-28,51.0,40.1,28.2,36.2,29.6,21.0,93,70,31,30.45,30.29,5,1,6,0.00
2012-11-29,51.4,35.6,22.9,30.4,25.0,20.9,93,69,36,30.53,30.40,6,1,9,0.00
2012-11-30,53.1,36.9,25.0,31.6,27.4,22.6,92,71,39,30.44,30.34,2,0,2,0.00
2012-12-1,57.5,40.3,27.9,38.4,32.8,25.9,94,77,45,30.50,30.39,2,0,4,0.00
2012-12-2,63.2,45.8,29.9,52.0,40.4,28.6,96,83,58,30.46,30.20,5,1,7,0.01
2012-12-3,72.4,58.8,49.1,55.6,51.6,47.0,95,79,54,30.30,30.21,4,1,5,0.00
2012-12-4,73.0,56.9,42.7,55.3,48.8,41.9,98,77,51,30.28,30.09,5,1,10,0.00
2012-12-5,61.9,55.5,40.5,50.5,36.2,24.2,80,51,26,30.31,30.05,8,2,10,0.00
2012-12-6,46.9,36.6,27.5,30.5,27.5,24.0,87,70,50,30.44,30.28,3,1,10,0.00
2012-12-7,52.2,44.3,35.5,45.1,38.9,30.8,94,82,67,30.28,30.02,4,2,10,0.01
2012-12-8,64.2,52.5,45.8,53.4,49.1,44.2,98,89,68,30.04,29.93,5,2,10,0.00
2012-12-9,54.8,51.1,49.2,52.0,49.8,48.2,98,95,89,30.20,30.02,3,1,10,0.08
2012-12-10,63.4,56.1,49.6,58.9,54.6,49.1,100,95,83,30.01,29.63,6,1,10,0.02
2012-12-11,57.1,48.0,41.4,56.3,39.0,29.9,98,73,51,30.26,29.66,6,2,11,0.14
2012-12-12,45.5,40.3,35.6,31.2,29.1,27.1,83,65,51,30.47,30.26,2,1,10,0.00
2012-12-13,49.8,36.1,26.8,29.0,26.3,23.9,92,70,39,30.52,30.42,4,1,10,0.00
2012-12-14,58.9,36.6,21.3,31.7,26.0,19.6,94,70,30,30.42,30.27,3,1,10,0.00
2012-12-15,53.5,40.6,29.5,40.1,31.7,26.5,93,73,43,30.35,30.16,3,0,10,0.08
2012-12-16,47.1,43.6,40.6,44.3,42.0,39.8,97,94,89,30.16,29.86,4,1,10,0.04
2012-12-17,50.5,47.2,43.9,47.3,44.4,-99.9,98,93,88,29.90,29.60,2,-12,10,0.02
2012-12-18,58.5,48.4,37.4,50.6,39.8,31.8,99,75,47,29.85,29.60,8,2,19,0.01
2012-12-19,61.5,48.2,33.2,38.2,34.4,29.5,88,61,36,30.21,29.83,6,1,14,0.00
2012-12-20,45.5,39.2,31.3,41.8,35.6,30.0,98,88,68,30.25,29.44,4,1,7,0.84
2012-12-21,45.8,40.3,35.5,42.7,28.2,19.7,98,63,46,29.68,29.40,8,3,21,0.07
2012-12-22,48.2,39.9,31.6,25.5,20.1,15.4,61,46,29,30.11,29.67,11,4,24,0.00
2012-12-23,48.7,37.3,25.1,26.1,21.6,14.6,82,54,39,30.14,29.96,5,1,11,0.00
2012-12-24,34.7,32.7,28.5,33.9,29.9,24.8,97,90,70,30.15,29.95,2,0,4,0.13
2012-12-25,44.7,37.8,32.1,42.0,35.7,31.6,99,92,74,30.27,29.96,3,1,6,0.01
2012-12-26,40.0,34.3,32.1,34.3,32.4,30.8,98,93,79,30.27,29.53,4,1,9,0.96
2012-12-27,44.9,38.3,31.7,34.8,28.3,24.1,98,68,49,30.11,29.55,7,3,15,0.24
2012-12-28,42.3,35.2,28.7,30.6,27.7,24.8,91,75,56,30.22,30.08,4,1,9,0.00
2012-12-29,49.2,38.6,32.9,39.6,30.9,25.4,96,76,51,30.07,29.62,8,2,18,0.08
2012-12-30,42.8,36.6,27.4,25.7,20.4,16.9,75,53,37,30.41,29.93,15,4,27,0.01
2012-12-31,42.6,34.5,25.0,25.9,22.5,20.2,87,64,42,30.40,30.07,3,1,6,0.00
2013-1-1,49.5,44.9,39.4,37.5,31.5,23.6,71,60,43,30.07,29.93,4,1,10,0.00